Weather History for KLSB - January, 2014

Change the Weather History Date:

Thursday, January 2, 2014

  Actual Average Record
Temperature  
Mean Temperature 44 °F -  
Max Temperature 55 °F 54 °F 55 °F (2014)
Min Temperature 32 °F 24 °F 15 °F (2013)
Degree Days  
Heating Degree Days 22    
Moisture  
Dew Point 22 °F    
Average Humidity 45    
Maximum Humidity 60    
Minimum Humidity 29    
Precipitation  
Precipitation 0.00 in - - ()
Sea Level Pressure  
Sea Level Pressure 30.27 in    
Wind  
Wind Speed 11 mph (SE)    
Max Wind Speed 21 mph    
Max Gust Speed 26 mph    
Visibility 10 miles    
Events      
Averages and records for this station are not official NWS values.
T = Trace of Precipitation, MM = Missing Value Source: NWS Daily Summary

Daily Weather History Graph

Daily Weather History Graph

Search for Another Location

Airport or City:

Trip Planner

Search our weather history database for the weather conditions in past years. The results will help you decide how hot, cold, wet, or windy it might be!

Date:

Astronomy

Jan. 02, 2014 Rise Set
Actual Time 7:16 AM MST 5:21 PM MST
Civil Twilight 6:49 AM MST 5:48 PM MST
Nautical Twilight 6:18 AM MST 6:19 PM MST
Astronomical Twilight 5:48 AM MST 6:48 PM MST
Moon 8:06 AM MST (1/2) 7:14 PM MST (1/2)
Length of Visible Light 10h 59m
Length of Day
10h 05m
Waxing Crescent, 3% of the Moon is Illuminated
Jan 2
Waxing Crescent
Jan 7
First Quarter
Jan 15
Full
Jan 23
Last Quarter
Jan 30
New

Hourly Weather History & Observations

Time (MST) Temp. Windchill Dew Point Humidity Pressure Visibility Wind Dir Wind Speed Gust Speed Precip Events Conditions
12:15 AM 37.4 °F 31.4 °F 21.2 °F 52% 30.23 in 10.0 mi SSW 8.1 mph - N/A   Clear
12:35 AM 35.6 °F - 21.2 °F 56% 30.23 in 10.0 mi Calm Calm - N/A   Clear
12:55 AM 32.0 °F - 17.6 °F 55% 30.23 in 10.0 mi Calm Calm - N/A   Clear
1:15 AM 32.0 °F - 19.4 °F 60% 30.24 in 10.0 mi Calm Calm - N/A   Clear
1:35 AM 32.0 °F - 19.4 °F 60% 30.25 in 10.0 mi Calm Calm - N/A   Clear
1:55 AM 33.8 °F 27.7 °F 17.6 °F 52% 30.26 in 10.0 mi SE 6.9 mph - N/A   Clear
2:15 AM 41.0 °F 33.5 °F 21.2 °F 45% 30.26 in 10.0 mi SSE 13.8 mph - N/A   Clear
2:35 AM 41.0 °F 33.5 °F 21.2 °F 45% 30.27 in 10.0 mi SE 13.8 mph - N/A   Clear
2:55 AM 37.4 °F 28.9 °F 21.2 °F 52% 30.27 in 10.0 mi SE 13.8 mph - N/A   Clear
3:15 AM 37.4 °F 29.3 °F 19.4 °F 48% 30.27 in 10.0 mi SSE 12.7 mph - N/A   Clear
3:35 AM 37.4 °F 30.3 °F 19.4 °F 48% 30.27 in 10.0 mi SSE 10.4 mph - N/A   Clear
3:55 AM 37.4 °F 29.8 °F 19.4 °F 48% 30.28 in 10.0 mi SSE 11.5 mph - N/A   Clear
4:15 AM 37.4 °F 28.9 °F 19.4 °F 48% 30.28 in 10.0 mi SSE 13.8 mph - N/A   Clear
4:35 AM 37.4 °F 28.9 °F 19.4 °F 48% 30.27 in 10.0 mi SSE 13.8 mph - N/A   Clear
4:55 AM 37.4 °F 28.9 °F 17.6 °F 45% 30.27 in 10.0 mi SE 13.8 mph - N/A   Clear
5:15 AM 37.4 °F 28.2 °F 17.6 °F 45% 30.28 in 10.0 mi SE 16.1 mph 20.7 mph N/A   Clear
5:35 AM 37.4 °F 28.5 °F 17.6 °F 45% 30.29 in 10.0 mi SE 15.0 mph - N/A   Clear
5:55 AM 37.4 °F 29.8 °F 17.6 °F 45% 30.31 in 10.0 mi SE 11.5 mph - N/A   Clear
6:15 AM 35.6 °F 27.5 °F 17.6 °F 48% 30.31 in 10.0 mi SE 11.5 mph - N/A   Clear
6:35 AM 35.6 °F 27.1 °F 17.6 °F 48% 30.31 in 10.0 mi SE 12.7 mph - N/A   Clear
7:15 AM 33.8 °F 23.9 °F 17.6 °F 52% 30.32 in 10.0 mi SE 15.0 mph - N/A   Clear
7:35 AM 33.8 °F 23.5 °F 17.6 °F 52% 30.33 in 10.0 mi SSE 16.1 mph - N/A   Clear
7:55 AM 35.6 °F 25.9 °F 19.4 °F 52% 30.34 in 10.0 mi SE 16.1 mph - N/A   Clear
8:15 AM 35.6 °F 25.5 °F 19.4 °F 52% 30.34 in 10.0 mi ESE 17.3 mph - N/A   Clear
8:35 AM 37.4 °F 28.2 °F 21.2 °F 52% 30.35 in 10.0 mi SE 16.1 mph - N/A   Clear
8:55 AM 39.2 °F 32.0 °F 21.2 °F 49% 30.36 in 10.0 mi SE 11.5 mph 19.6 mph N/A   Clear
9:35 AM 44.6 °F 37.8 °F 23.0 °F 43% 30.37 in 10.0 mi ESE 15.0 mph 24.2 mph N/A   Clear
9:55 AM 44.6 °F 36.6 °F 23.0 °F 43% 30.38 in 10.0 mi ESE 19.6 mph 25.3 mph N/A   Clear
10:35 AM 46.4 °F 38.7 °F 24.8 °F 43% 30.37 in 10.0 mi ESE 20.7 mph 25.3 mph N/A   Clear
10:55 AM 48.2 °F - 24.8 °F 40% 30.36 in 10.0 mi ESE 20.7 mph 25.3 mph N/A   Clear
11:15 AM 50.0 °F - 24.8 °F 37% 30.35 in 10.0 mi ESE 17.3 mph 24.2 mph N/A   Clear
11:35 AM 50.0 °F - 24.8 °F 37% 30.34 in 10.0 mi ESE 18.4 mph 25.3 mph N/A   Clear
11:55 AM 51.8 °F - 24.8 °F 35% 30.32 in 10.0 mi ESE 20.7 mph 26.5 mph N/A   Clear
12:15 PM 51.8 °F - 24.8 °F 35% 30.30 in 10.0 mi ESE 15.0 mph 25.3 mph N/A   Clear
12:35 PM 53.6 °F - 23.0 °F 30% 30.29 in 10.0 mi ESE 19.6 mph 26.5 mph N/A   Clear
12:55 PM 53.6 °F - 24.8 °F 33% 30.28 in 10.0 mi ESE 17.3 mph 25.3 mph N/A   Clear
1:15 PM 53.6 °F - 23.0 °F 30% 30.27 in 10.0 mi ESE 18.4 mph 26.5 mph N/A   Clear
1:35 PM 55.4 °F - 23.0 °F 29% 30.26 in 10.0 mi ESE 17.3 mph 25.3 mph N/A   Clear
1:55 PM 55.4 °F - 23.0 °F 29% 30.25 in 10.0 mi ESE 17.3 mph 25.3 mph N/A   Clear
2:15 PM 55.4 °F - 23.0 °F 29% 30.25 in 10.0 mi ESE 19.6 mph 24.2 mph N/A   Clear
2:35 PM 55.4 °F - 23.0 °F 29% 30.24 in 10.0 mi ESE 15.0 mph 23.0 mph N/A   Clear
2:55 PM 55.4 °F - 23.0 °F 29% 30.24 in 10.0 mi ESE 17.3 mph 21.9 mph N/A   Clear
3:15 PM 55.4 °F - 23.0 °F 29% 30.24 in 10.0 mi ESE 16.1 mph 21.9 mph N/A   Clear
3:35 PM 55.4 °F - 23.0 °F 29% 30.24 in 10.0 mi ESE 16.1 mph 23.0 mph N/A   Clear
3:55 PM 55.4 °F - 23.0 °F 29% 30.23 in 10.0 mi ESE 15.0 mph 21.9 mph N/A   Clear
4:15 PM 53.6 °F - 23.0 °F 30% 30.23 in 10.0 mi ESE 15.0 mph 20.7 mph N/A   Clear
4:35 PM 53.6 °F - 23.0 °F 30% 30.23 in 10.0 mi ESE 15.0 mph 20.7 mph N/A   Clear
4:55 PM 51.8 °F - 23.0 °F 33% 30.23 in 10.0 mi ESE 11.5 mph 17.3 mph N/A   Clear
5:15 PM 50.0 °F - 23.0 °F 35% 30.23 in 10.0 mi ESE 10.4 mph - N/A   Clear
5:35 PM 46.4 °F 41.9 °F 23.0 °F 40% 30.23 in 10.0 mi ESE 9.2 mph - N/A   Clear
5:55 PM 44.6 °F 39.7 °F 21.2 °F 39% 30.23 in 10.0 mi ESE 9.2 mph - N/A   Clear
6:15 PM 42.8 °F 38.0 °F 21.2 °F 42% 30.23 in 10.0 mi ESE 8.1 mph - N/A   Clear
6:35 PM 42.8 °F 38.6 °F 21.2 °F 42% 30.23 in 10.0 mi SE 6.9 mph - N/A   Clear
6:55 PM 39.2 °F 34.2 °F 21.2 °F 49% 30.23 in 10.0 mi SE 6.9 mph - N/A   Clear
7:15 PM 39.2 °F 33.6 °F 21.2 °F 49% 30.23 in 10.0 mi SSE 8.1 mph - N/A   Clear
7:35 PM 39.2 °F 33.0 °F 21.2 °F 49% 30.23 in 10.0 mi SSE 9.2 mph - N/A   Clear
7:55 PM 39.2 °F 33.0 °F 21.2 °F 49% 30.23 in 10.0 mi SSE 9.2 mph - N/A   Clear
8:15 PM 39.2 °F 33.6 °F 23.0 °F 52% 30.24 in 10.0 mi SSE 8.1 mph - N/A   Clear
8:35 PM 37.4 °F 31.4 °F 23.0 °F 56% 30.23 in 10.0 mi SE 8.1 mph - N/A   Clear
8:55 PM 39.2 °F 33.0 °F 23.0 °F 52% 30.24 in 10.0 mi SE 9.2 mph - N/A   Clear
9:15 PM 39.2 °F 33.0 °F 23.0 °F 52% 30.24 in 10.0 mi SE 9.2 mph - N/A   Clear
9:55 PM 37.4 °F 30.8 °F 23.0 °F 56% 30.23 in 10.0 mi SSE 9.2 mph - N/A   Clear
10:15 PM 37.4 °F 30.8 °F 23.0 °F 56% 30.23 in 10.0 mi SSE 9.2 mph - N/A   Clear
10:35 PM 37.4 °F 30.8 °F 23.0 °F 56% 30.23 in 10.0 mi SSE 9.2 mph - N/A   Clear
10:55 PM 37.4 °F 30.8 °F 23.0 °F 56% 30.22 in 10.0 mi South 9.2 mph - N/A   Clear
11:15 PM 35.6 °F 28.6 °F 23.0 °F 60% 30.22 in 10.0 mi SSE 9.2 mph - N/A   Clear
11:35 PM 35.6 °F 29.2 °F 23.0 °F 60% 30.22 in 10.0 mi SSE 8.1 mph - N/A   Clear
11:55 PM 35.6 °F 29.2 °F 23.0 °F 60% 30.21 in 10.0 mi SSE 8.1 mph - N/A   Clear